Tracking 18852 objects as of 23-Nov-2017
HD Live streaming from Space Station
objects crossing your sky now

SPOT 1

Track SPOT 1 now!
10-day predictions
SPOT 1 is classified as:


NORAD ID: 16613
Int'l Code: 1986-019A
Perigee: 584.4 km
Apogee: 784.2 km
Inclination: 98.7 °
Period: 98.3 minutes
Semi major axis: 7055 km
RCS: 9.2289 m2 (large)
Launch date: February 22, 1986
Source: France (FR)
Launch site: FRENCH GUIANA (FRGUI)
aabbcc
Your satellite tracking list
Your tracking list is empty




NASA's NSSDC Master Catalog

Two Line Element Set (TLE):
1 16613U 86019A   17326.62766192 +.00000150 +00000-0 +34828-4 0  9994
2 16613 098.6978 024.8643 0141600 269.9411 207.7657 14.64975315352444
Source of the keplerian elements: AFSPC